Date String (YYYY-MM-DD hh:mm:ss) UTC,Instrument flags,absolute air pressure of the measurement (hPa),sample flow rate (lpm),inlet stack bypass flow (lpm),air temperature of the measurement (°C),ambient temperature measured by the external sensor (°C),aerosol sample conditioner tube jacket temperature (°C),OPC LED temperature (°C),internal box temperature (°C),relative humidity of the measurement (%),span deviation,mass concentration of particles derived from Lorenz-Mie calculation of OPC scattering (μg/m³),mass concentration of particles derived from Lorenz-Mie calculation of OPC scattering (μg/m³),mass concentration of particles derived from Lorenz-Mie calculation of OPC scattering (μg/m³)
DateTimeUTC,F1_M11,P_M11,Q1_M11,Q2_M11,T1_M11,T2_M11,T3_M11,T4_M11,T5_M11,U1_M11,ZSPAN_M11,X2_M11,X0_M11,X1_M11
2023-07-12 07:00:00,SystemResetWarning,0830.0,5.01,000.00,029.2,025.5,000.0,037.5,030.5,16.3,0000.0,0004.50,0011.50,0003.74
2023-07-12 07:01:00,SystemResetWarning,0830.0,4.99,000.00,029.2,025.7,000.0,037.6,030.4,16.4,0000.0,0004.41,0011.66,0003.73
2023-07-12 07:02:00,SystemResetWarning,0830.0,4.99,000.00,029.1,026.1,000.0,037.6,030.5,16.4,0000.0,0004.41,0011.28,0003.72
2023-07-12 07:03:00,SystemResetWarning,0830.0,5.00,000.00,029.1,026.5,000.0,037.6,030.6,16.2,0000.0,0004.43,0011.87,0003.71
2023-07-12 07:04:00,SystemResetWarning,0830.0,5.00,000.00,029.1,026.8,000.0,037.6,030.6,16.0,0000.0,0004.42,0011.67,0003.71
2023-07-12 07:05:00,SystemResetWarning,0830.0,5.00,000.00,029.1,027.1,000.0,037.6,030.7,15.9,0000.0,0004.45,0012.02,0003.70
2023-07-12 07:06:00,SystemResetWarning,0830.0,5.00,000.00,029.2,027.4,000.0,037.6,030.8,16.2,0000.0,0004.44,0011.85,0003.68
2023-07-12 07:07:00,SystemResetWarning,0830.0,5.00,000.00,029.2,027.5,000.0,037.7,030.8,16.0,0000.0,0004.44,0012.12,0003.66
2023-07-12 07:08:00,SystemResetWarning,0830.0,5.00,000.00,029.2,027.7,000.0,037.7,030.8,16.1,0000.0,0004.45,0012.00,0003.64
2023-07-12 07:09:00,SystemResetWarning,0830.0,5.00,000.00,029.3,027.9,000.0,037.7,030.9,16.3,0000.0,0004.46,0012.89,0003.62
2023-07-12 07:10:00,SystemResetWarning,0830.0,4.99,000.00,029.3,028.0,000.0,037.7,030.9,16.5,0000.0,0004.48,0013.94,0003.61
2023-07-12 07:11:00,SystemResetWarning,0830.0,5.01,000.00,029.3,028.1,000.0,037.7,031.0,15.8,0000.0,0004.48,0013.45,0003.60
2023-07-12 07:12:00,SystemResetWarning,0830.0,5.00,000.00,029.4,028.2,000.0,037.7,031.0,15.6,0000.0,0004.49,0013.08,0003.57
2023-07-12 07:13:00,SystemResetWarning,0830.0,5.00,000.00,029.4,028.3,000.0,037.8,031.1,15.3,0000.0,0004.50,0013.30,0003.56
2023-07-12 07:14:00,SystemResetWarning,0830.0,5.00,000.00,029.4,028.3,000.0,037.8,031.1,15.2,0000.0,0004.47,0012.88,0003.54
2023-07-12 07:15:00,SystemResetWarning,0830.0,5.00,000.00,029.5,027.9,000.0,037.8,031.1,15.1,0000.0,0004.43,0012.49,0003.52
2023-07-12 07:16:00,SystemResetWarning,0830.0,5.00,000.00,029.4,025.9,000.0,037.7,030.9,15.1,0000.0,0004.42,0012.56,0003.51
2023-07-12 07:17:00,SystemResetWarning,0829.9,5.01,000.00,029.3,025.3,000.0,037.6,030.7,15.3,0000.0,0004.39,0012.99,0003.49
2023-07-12 07:18:00,SystemResetWarning,0829.9,5.00,000.00,029.2,025.5,000.0,037.6,030.5,15.7,0000.0,0004.38,0012.88,0003.48
2023-07-12 07:19:00,SystemResetWarning,0829.9,5.00,000.00,029.2,025.8,000.0,037.6,030.5,15.7,0000.0,0004.36,0012.84,0003.48
2023-07-12 07:20:00,SystemResetWarning,0829.9,5.00,000.00,029.2,026.3,000.0,037.7,030.5,15.7,0000.0,0004.35,0013.34,0003.47
2023-07-12 07:21:00,SystemResetWarning,0829.9,5.00,000.00,029.2,026.6,000.0,037.7,030.6,15.4,0000.0,0004.30,0012.97,0003.46
2023-07-12 07:22:00,SystemResetWarning,0829.9,5.00,000.00,029.2,026.9,000.0,037.7,030.7,15.4,0000.0,0004.31,0013.05,0003.44
2023-07-12 07:23:00,SystemResetWarning,0829.9,5.01,000.00,029.2,027.2,000.0,037.7,030.7,15.5,0000.0,0004.28,0012.86,0003.43
2023-07-12 07:24:00,SystemResetWarning,0829.9,5.00,000.00,029.2,027.4,000.0,037.7,030.8,15.4,0000.0,0004.23,0012.60,0003.42
2023-07-12 07:25:00,SystemResetWarning,0829.8,5.00,000.00,029.2,027.6,000.0,037.7,030.8,15.3,0000.0,0004.14,0012.44,0003.42
2023-07-12 07:26:00,SystemResetWarning,0829.8,5.01,000.00,029.3,027.8,000.0,037.7,030.9,15.1,0000.0,0004.12,0012.86,0003.42
2023-07-12 07:27:00,SystemResetWarning,0829.8,4.99,000.00,029.3,027.9,000.0,037.7,030.9,15.1,0000.0,0004.06,0012.38,0003.41
2023-07-12 07:28:00,SystemResetWarning,0829.8,5.00,000.00,029.3,028.0,000.0,037.7,031.0,15.0,0000.0,0004.05,0012.08,0003.41
2023-07-12 07:29:00,SystemResetWarning,0829.8,5.00,000.00,029.3,028.1,000.0,037.8,031.0,15.1,0000.0,0004.04,0012.23,0003.40
2023-07-12 07:30:00,SystemResetWarning,0829.8,5.00,000.00,029.4,028.2,000.0,037.8,031.1,15.0,0000.0,0004.02,0012.14,0003.39
2023-07-12 07:31:00,SystemResetWarning,0829.8,5.01,000.00,029.4,028.3,000.0,037.8,031.1,15.1,0000.0,0004.00,0011.19,0003.39
2023-07-12 07:32:00,SystemResetWarning,0829.8,4.99,000.00,029.5,028.3,000.0,037.8,031.1,15.5,0000.0,0003.99,0010.54,0003.38
2023-07-12 07:33:00,SystemResetWarning,0829.8,4.99,000.00,029.5,028.1,000.0,037.8,031.1,16.0,0000.0,0003.95,0010.57,0003.38
2023-07-12 07:34:00,SystemResetWarning,0829.8,5.00,000.00,029.5,026.2,000.0,037.7,030.9,16.0,0000.0,0003.99,0011.14,0003.38
2023-07-12 07:35:00,SystemResetWarning,0829.8,5.01,000.00,029.4,025.3,000.0,037.6,030.7,15.3,0000.0,0003.99,0011.08,0003.38
2023-07-12 07:36:00,SystemResetWarning,0829.8,5.02,000.00,029.3,025.4,000.0,037.6,030.5,15.0,0000.0,0004.00,0010.63,0003.38
2023-07-12 07:37:00,SystemResetWarning,0829.7,5.00,000.00,029.2,025.8,000.0,037.6,030.5,14.7,0000.0,0004.01,0010.30,0003.37
2023-07-12 07:38:00,SystemResetWarning,0829.7,5.00,000.00,029.2,026.2,000.0,037.7,030.5,14.4,0000.0,0004.03,0010.38,0003.36
2023-07-12 07:39:00,SystemResetWarning,0829.8,5.00,000.00,029.2,026.6,000.0,037.7,030.6,14.1,0000.0,0004.00,0010.07,0003.35
2023-07-12 07:40:00,SystemResetWarning,0829.8,5.01,000.00,029.2,026.9,000.0,037.7,030.7,14.2,0000.0,0004.00,0009.24,0003.36
2023-07-12 07:41:00,SystemResetWarning,0829.8,5.00,000.00,029.2,027.2,000.0,037.7,030.7,15.9,0000.0,0003.99,0009.10,0003.37
2023-07-12 07:42:00,SystemResetWarning,0829.8,5.00,000.00,029.2,027.4,000.0,037.7,030.8,16.7,0000.0,0003.98,0008.90,0003.38
2023-07-12 07:43:00,SystemResetWarning,0829.8,5.00,000.00,029.2,027.6,000.0,037.7,030.8,16.0,0000.0,0003.97,0008.45,0003.38
2023-07-12 07:44:00,SystemResetWarning,0829.8,4.99,000.00,029.3,027.7,000.0,037.7,030.9,15.4,0000.0,0003.95,0008.14,0003.38
2023-07-12 07:45:00,SystemResetWarning,0829.7,4.99,000.00,029.3,027.9,000.0,037.7,030.9,15.4,0000.0,0003.89,0007.53,0003.37
2023-07-12 07:46:00,SystemResetWarning,0829.7,5.01,000.00,029.3,028.0,000.0,037.8,031.0,14.7,0000.0,0003.87,0007.64,0003.36
2023-07-12 07:47:00,SystemResetWarning,0829.8,5.00,000.00,029.3,028.1,000.0,037.8,031.0,14.4,0000.0,0003.89,0008.19,0003.35
2023-07-12 07:48:00,SystemResetWarning,0829.8,5.00,000.00,029.4,028.2,000.0,037.8,031.0,14.3,0000.0,0003.96,0008.21,0003.37
2023-07-12 07:49:00,SystemResetWarning,0829.8,4.99,000.00,029.4,028.2,000.0,037.8,031.1,14.3,0000.0,0003.98,0008.17,0003.37
2023-07-12 07:50:00,SystemResetWarning,0829.8,5.01,000.00,029.5,028.3,000.0,037.8,031.1,14.1,0000.0,0004.00,0008.25,0003.38
2023-07-12 07:51:00,SystemResetWarning,0829.8,5.01,000.00,029.5,028.4,000.0,037.9,031.1,14.1,0000.0,0004.01,0008.28,0003.37
2023-07-12 07:52:00,SystemResetWarning,0829.8,4.99,000.00,029.5,028.4,000.0,037.9,031.2,13.9,0000.0,0004.00,0008.28,0003.35
2023-07-12 07:53:00,SystemResetWarning,0829.8,4.99,000.00,029.5,028.4,000.0,037.9,031.2,14.3,0000.0,0004.01,0008.36,0003.35
2023-07-12 07:54:00,SystemResetWarning,0829.8,5.00,000.00,029.5,026.8,000.0,037.8,031.0,13.7,0000.0,0004.02,0008.25,0003.35
2023-07-12 07:55:00,SystemResetWarning,0829.8,5.00,000.00,029.5,025.4,000.0,037.7,030.9,13.6,0000.0,0004.04,0008.40,0003.34
2023-07-12 07:56:00,SystemResetWarning,0829.7,5.00,000.00,029.4,025.4,000.0,037.7,030.7,14.0,0000.0,0004.03,0008.83,0003.34
2023-07-12 07:57:00,SystemResetWarning,0829.7,5.01,000.00,029.3,025.7,000.0,037.7,030.6,14.5,0000.0,0004.03,0009.22,0003.35
2023-07-12 07:58:00,SystemResetWarning,0829.8,5.00,000.00,029.3,026.1,000.0,037.7,030.6,14.6,0000.0,0004.00,0008.54,0003.35
2023-07-12 07:59:00,SystemResetWarning,0829.8,4.99,000.00,029.2,026.5,000.0,037.8,030.7,14.7,0000.0,0003.93,0008.46,0003.34
